Weather History for KFWA - March, 2013

Change the Weather History Date:

Wednesday, March 13, 2013

  Actual Average Record
Temperature  
Mean Temperature 28 °F 37 °F  
Max Temperature 31 °F 47 °F 73 °F (1990)
Min Temperature 24 °F 28 °F -1 °F (2014)
Degree Days  
Heating Degree Days 37 28  
Month to date heating degree days 428 392  
Since 1 July heating degree days 4819 4990  
Cooling Degree Days 0 0  
Month to date cooling degree days 0 0  
Year to date cooling degree days 0 0  
Moisture  
Dew Point 21 °F    
Average Humidity 72    
Maximum Humidity 85    
Minimum Humidity 58    
Precipitation  
Precipitation T in 0.08 in 2.62 in (1925)
Month to date precipitation 1.55 1.02  
Year to date precipitation 6.84 5.32  
Snow  
Snow 0.10 in 0.20 in 1.80 in (1980)
Month to date snowfall 11.5 2.3  
Since 1 July snowfall 31.9 30.7  
Snow Depth T in    
Sea Level Pressure  
Sea Level Pressure 30.11 in    
Wind  
Wind Speed 14 mph (West)    
Max Wind Speed 24 mph    
Max Gust Speed 33 mph    
Visibility 8 miles    
Events Snow    
T = Trace of Precipitation, MM = Missing Value Source: NWS Daily Summary

Daily Weather History Graph

Daily Weather History Graph

Search for Another Location

Airport or City:

Trip Planner

Search our weather history database for the weather conditions in past years. The results will help you decide how hot, cold, wet, or windy it might be!

Date:

Astronomy

Mar. 13, 2013 Rise Set
Actual Time 7:55 AM EDT 7:45 PM EDT
Civil Twilight 7:27 AM EDT 8:12 PM EDT
Nautical Twilight 6:56 AM EDT 8:44 PM EDT
Astronomical Twilight 6:23 AM EDT 9:17 PM EDT
Moon 8:33 AM EDT (3/13) 10:02 PM EDT (3/13)
Length of Visible Light 12h 45m
Length of Day
11h 50m
Waxing Crescent, 4% of the Moon is Illuminated
Mar 13
Waxing Crescent
Mar 19
First Quarter
Mar 27
Full
Apr 3
Last Quarter
Apr 10
New

Hourly Weather History & Observations

Time (EDT) Temp. Windchill Dew Point Humidity Pressure Visibility Wind Dir Wind Speed Gust Speed Precip Events Conditions
12:05 AM 32.0 °F 22.1 °F 26.6 °F 80% 29.97 in 10.0 mi West 13.8 mph - N/A   Mostly Cloudy
12:22 AM 32.0 °F 20.8 °F 26.6 °F 80% 29.97 in 10.0 mi West 17.3 mph 28.8 mph 0.00 in Snow Light Snow
12:54 AM 30.0 °F 19.1 °F 26.1 °F 85% 29.99 in 10.0 mi West 15.0 mph - 0.00 in   Mostly Cloudy
1:54 AM 30.9 °F 19.8 °F 26.1 °F 82% 29.99 in 10.0 mi West 16.1 mph - 0.00 in Snow Light Snow
2:54 AM 28.9 °F 16.9 °F 23.0 °F 78% 29.99 in 10.0 mi West 17.3 mph 25.3 mph 0.00 in   Mostly Cloudy
3:27 AM 28.4 °F 17.0 °F 21.2 °F 74% 29.96 in 10.0 mi West 15.0 mph - N/A   Mostly Cloudy
3:54 AM 27.0 °F 15.2 °F 21.9 °F 81% 29.99 in 10.0 mi West 15.0 mph - N/A   Mostly Cloudy
4:38 AM 26.6 °F 14.7 °F 21.2 °F 80% 29.96 in 10.0 mi West 15.0 mph - N/A   Mostly Cloudy
4:54 AM 27.0 °F 15.2 °F 21.9 °F 81% 30.00 in 10.0 mi West 15.0 mph 23.0 mph N/A   Mostly Cloudy
5:03 AM 26.6 °F 14.3 °F 21.2 °F 80% 29.97 in 10.0 mi West 16.1 mph - N/A   Mostly Cloudy
5:54 AM 27.0 °F 15.2 °F 21.9 °F 81% 30.01 in 6.0 mi West 15.0 mph - 0.00 in Snow Light Snow
6:19 AM 26.6 °F 16.2 °F 21.2 °F 80% 29.99 in 9.0 mi West 11.5 mph - 0.00 in Snow Light Snow
6:54 AM 27.0 °F 15.2 °F 23.0 °F 85% 30.04 in 7.0 mi West 15.0 mph - 0.00 in Snow Light Snow
7:54 AM 27.0 °F 15.2 °F 21.9 °F 81% 30.05 in 10.0 mi West 15.0 mph - 0.00 in   Mostly Cloudy
8:54 AM 26.1 °F 14.0 °F 21.9 °F 84% 30.07 in 5.0 mi West 15.0 mph 25.3 mph 0.00 in Snow Light Snow
9:27 AM 26.6 °F 14.7 °F 21.2 °F 80% 30.06 in 2.5 mi West 15.0 mph - 0.00 in Snow Light Snow
9:29 AM 26.6 °F 14.3 °F 21.2 °F 80% 30.06 in 1.5 mi West 16.1 mph 21.9 mph 0.00 in Snow Light Snow
9:54 AM 26.1 °F 12.7 °F 23.0 °F 88% 30.10 in 0.8 mi West 18.4 mph 24.2 mph 0.00 in Snow Light Snow
9:58 AM 26.6 °F 14.3 °F 23.0 °F 86% 30.07 in 1.5 mi WNW 16.1 mph 24.2 mph 0.00 in Snow Light Snow
10:01 AM 26.6 °F 15.7 °F 23.0 °F 86% 30.07 in 3.0 mi WNW 12.7 mph 24.2 mph 0.00 in Snow Light Snow
10:18 AM 26.6 °F 14.3 °F 21.2 °F 80% 30.08 in 5.0 mi WNW 16.1 mph 24.2 mph 0.00 in Snow Light Snow
10:54 AM 27.0 °F 15.2 °F 19.9 °F 75% 30.12 in 9.0 mi WNW 15.0 mph 33.4 mph 0.00 in   Mostly Cloudy
11:22 AM 28.4 °F 15.4 °F 19.4 °F 69% 30.10 in 10.0 mi West 19.6 mph 25.3 mph N/A   Mostly Cloudy
11:54 AM 28.0 °F 16.1 °F 19.0 °F 69% 30.14 in 10.0 mi WNW 16.1 mph 25.3 mph N/A   Mostly Cloudy
12:35 PM 28.4 °F 15.8 °F 19.4 °F 69% 30.13 in 10.0 mi WNW 18.4 mph 28.8 mph N/A   Overcast
12:54 PM 28.0 °F 16.5 °F 19.0 °F 69% 30.17 in 10.0 mi WNW 15.0 mph 24.2 mph N/A   Overcast
1:54 PM 28.9 °F 16.1 °F 19.9 °F 69% 30.18 in 9.0 mi West 19.6 mph 26.5 mph 0.00 in Snow Light Snow
2:54 PM 28.0 °F 17.0 °F 19.9 °F 72% 30.20 in 5.0 mi WNW 13.8 mph 28.8 mph 0.00 in Snow Light Snow
3:10 PM 28.4 °F 15.8 °F 19.4 °F 69% 30.17 in 9.0 mi WNW 18.4 mph 28.8 mph 0.00 in Snow Light Snow
3:54 PM 28.0 °F 15.3 °F 19.0 °F 69% 30.21 in 9.0 mi WNW 18.4 mph 24.2 mph 0.00 in Snow Light Snow
4:54 PM 28.0 °F 15.7 °F 19.0 °F 69% 30.23 in 8.0 mi WNW 17.3 mph 27.6 mph 0.00 in Snow Light Snow
5:54 PM 28.0 °F 16.5 °F 18.0 °F 66% 30.25 in 9.0 mi WNW 15.0 mph - 0.00 in Snow Light Snow
6:54 PM 28.9 °F 18.6 °F 17.1 °F 61% 30.26 in 10.0 mi NW 12.7 mph - 0.00 in   Mostly Cloudy
7:54 PM 28.0 °F 19.3 °F 16.0 °F 61% 30.27 in 10.0 mi WNW 9.2 mph 19.6 mph N/A   Partly Cloudy
8:54 PM 27.0 °F 18.7 °F 16.0 °F 63% 30.30 in 10.0 mi NW 8.1 mph - N/A   Clear
9:54 PM 27.0 °F 17.3 °F 17.1 °F 66% 30.30 in 10.0 mi WNW 10.4 mph - N/A   Clear
10:54 PM 26.1 °F 17.6 °F 16.0 °F 66% 30.31 in 10.0 mi WNW 8.1 mph - N/A   Clear
11:54 PM 26.1 °F 16.8 °F 17.1 °F 69% 30.32 in 10.0 mi West 9.2 mph - N/A   Clear